GFSFLT1_con_3kmhel_021.txt.gz
Helicity
73 71 62 63 80 55 74 83 92 177 168 114 95 96 82 93 94 121 177 113 149 119 106 102 105 106 109 112 104 80 89 92
226 168 103 98 83 110 112 124 176 98 142 149 128 118 144 113 142 234 162 181 150 114 107 102 101 127 136 119 92 78 86 86
179 173 182 184 151 115 119 137 129 157 154 151 120 131 129 150 97 223 190 265 148 148 168 127 121 162 141 116 90 94 105 103
174 183 161 137 142 152 171 167 183 185 153 153 158 112 105 130 199 163 144 103 124 143 134 159 145 137 123 108 114 117 119 106
150 129 115 110 128 140 159 180 183 167 148 149 101 94 91 149 115 166 195 107 103 144 143 144 138 95 91 83 88 176 194 131
132 105 99 120 125 147 162 142 137 122 97 80 87 104 148 133 121 134 236 142 179 145 148 139 116 66 84 93 179 183 205 252
86 72 50 66 126 158 110 94 87 84 95 126 151 123 82 85 111 138 168 183 138 135 144 143 76 36 101 232 233 199 171 208
69 61 86 135 143 114 84 86 84 92 92 75 70 72 92 105 147 174 173 146 131 105 120 65 46 229 231 213 195 174 118 128
35 47 67 107 130 102 75 44 50 104 140 161 159 161 159 152 171 159 124 112 100 61 56 138 216 227 197 160 166 70 56 85
65 105 105 129 131 108 97 84 108 134 155 193 173 138 130 144 138 76 58 43 56 80 181 202 204 299 283 205 144 89 83 50
94 95 106 117 135 123 113 94 115 157 148 133 142 154 144 139 85 103 111 105 151 179 152 118 237 203 175 116 88 47 103 117
86 98 128 135 140 152 172 164 165 122 142 158 159 144 158 130 128 118 108 118 155 125 121 184 166 157 140 87 69 69 100 118
68 90 150 167 195 188 175 143 145 146 152 152 114 111 125 127 141 202 168 170 93 84 144 148 157 153 122 79 64 86 122 166
132 140 132 173 199 190 181 162 154 139 114 103 102 135 204 159 154 146 146 99 83 77 82 84 67 36 65 85 59 61 46 37
150 197 156 188 130 181 151 126 109 111 109 86 97 185 114 96 78 92 119 105 92 105 134 121 123 103 89 70 107 84 70 66
196 176 159 140 137 145 117 127 118 114 91 91 105 172 117 145 137 136 134 121 104 92 87 81 83 77 105 159 135 95 84 70
207 137 134 117 122 102 147 104 108 108 107 115 136 181 165 142 148 132 133 118 96 86 77 78 82 81 190 177 129 97 75 72
129 90 100 120 121 152 102 114 104 136 151 121 199 168 161 142 129 135 115 96 83 69 69 76 92 94 201 147 123 85 74 63
31 122 165 138 108 91 106 118 114 111 73 175 167 194 152 114 122 109 106 90 85 76 77 99 101 96 170 143 113 71 85 77

GFSFLT1_con_3kmhel_024.txt.gz
Helicity
194 257 193 215 150 134 114 193 269 243 224 160 118 126 95 89 132 161 246 192 212 219 161 139 129 127 141 144 143 143 154 137
284 288 312 244 154 208 279 231 179 139 146 178 195 240 241 239 212 209 266 183 190 205 171 158 163 171 200 220 193 176 162 145
170 237 307 262 209 182 174 164 185 185 224 174 145 153 134 136 112 157 196 112 205 197 210 182 163 178 170 146 169 192 180 142
139 193 203 165 167 147 138 151 159 166 204 220 168 125 142 154 200 193 166 268 223 196 173 172 182 175 165 139 136 141 179 149
201 139 108 106 114 132 130 163 190 171 144 154 146 134 176 193 207 213 205 212 174 230 190 170 162 171 150 120 175 235 264 217
138 117 113 112 100 95 109 114 104 95 74 89 90 124 124 142 166 155 160 180 194 173 162 158 165 171 155 273 328 306 230 162
114 68 29 -5 -8 24 93 107 139 135 134 102 69 58 79 128 127 162 193 181 141 117 109 120 113 159 241 243 200 184 114 130
157 156 163 136 118 72 81 113 101 100 154 165 214 260 236 223 201 202 184 100 88 78 57 77 145 188 244 266 257 194 117 105
73 73 78 111 138 200 188 164 135 119 164 242 203 215 245 233 202 167 116 126 110 67 180 200 229 265 266 262 177 102 66 55
41 117 99 137 141 155 155 142 152 198 219 200 168 213 177 189 189 138 130 93 77 153 137 160 228 235 234 135 100 103 93 89
112 129 165 190 184 216 202 235 251 279 279 262 225 216 217 183 143 86 113 162 168 154 201 226 165 134 176 125 97 84 76 83
127 150 187 166 146 152 190 211 255 282 274 235 174 162 134 155 190 226 211 166 160 156 155 136 136 167 139 124 94 85 74 81
192 175 155 183 178 261 239 278 333 288 215 140 158 151 260 270 218 176 138 96 121 123 101 88 79 81 71 67 108 67 51 87
140 155 171 219 264 210 197 270 233 221 141 165 141 163 227 166 111 77 95 104 111 112 117 133 147 130 125 118 101 109 179 133
187 263 220 192 182 161 228 181 237 187 181 155 135 166 211 192 110 124 146 144 148 140 129 111 116 108 95 105 148 165 144 85
323 238 117 136 140 180 159 201 199 183 169 143 168 143 331 272 196 157 158 164 168 150 121 113 108 100 147 148 147 120 90 76
209 128 108 124 144 159 138 122 150 200 201 213 183 255 304 237 170 164 150 161 176 147 127 108 100 100 168 150 125 94 77 79
132 93 113 185 149 115 97 130 130 191 100 176 126 243 276 232 200 187 172 201 174 163 117 102 115 144 172 160 123 72 67 77
112 99 136 131 130 91 91 117 119 142 197 147 134 283 199 265 194 221 277 210 162 140 119 170 173 150 159 138 99 90 107 80

GFSFLT1_con_3kmhel_027.txt.gz
Helicity
507 497 442 333 265 303 333 263 242 197 214 180 160 177 166 153 197 228 250 213 199 195 212 187 167 134 123 127 120 100 101 113
538 575 530 416 251 270 282 303 276 261 227 179 182 217 213 178 161 148 164 208 257 291 185 180 189 163 140 130 110 117 130 117
332 363 385 397 316 224 192 188 159 201 230 208 205 192 185 199 259 304 310 296 281 275 288 262 225 190 155 126 108 111 117 142
195 214 224 253 260 206 149 108 100 136 185 192 193 197 192 174 176 149 158 206 240 282 258 208 196 147 142 138 167 188 141 134
51 72 138 153 138 121 105 77 77 101 120 141 148 125 125 92 93 120 195 250 253 198 144 112 84 96 116 135 186 151 115 89
73 69 67 50 53 47 44 120 124 83 71 70 79 86 66 65 122 199 197 158 130 90 74 93 102 87 92 107 114 99 89 110
81 75 36 -30 -58 -28 34 73 95 131 159 174 194 198 181 217 205 156 113 61 40 56 71 55 64 95 120 124 150 164 144 153
128 130 81 49 93 109 102 125 111 138 170 213 222 252 278 249 210 164 135 93 54 65 68 95 79 106 129 163 161 188 158 99
74 137 132 151 191 198 189 184 220 248 249 275 257 244 213 166 134 84 114 114 90 75 80 105 123 139 165 163 115 68 -14 47
128 200 277 275 237 196 178 197 260 327 349 340 296 240 181 128 79 152 174 161 119 117 139 155 146 141 127 92 104 103 92 76
231 205 250 184 158 143 159 214 308 349 331 291 231 185 201 208 247 217 172 128 115 135 143 127 133 132 115 105 99 71 92 117
185 215 208 175 202 200 179 264 330 331 319 270 210 162 183 205 197 188 124 104 134 128 97 123 97 72 57 72 68 76 67 78
164 186 209 277 225 184 168 258 254 263 238 204 176 188 195 207 200 185 137 42 55 93 118 125 97 94 90 76 73 88 157 159
344 266 226 214 163 156 131 209 227 198 198 207 200 204 202 172 264 213 163 91 135 179 156 129 117 107 106 102 126 136 128 103
186 172 139 118 122 109 157 175 179 136 169 185 187 204 225 292 383 232 182 152 173 195 162 136 128 113 129 127 121 106 84 62
95 113 106 130 166 147 118 126 127 149 220 221 182 189 278 459 418 331 205 97 200 218 185 153 145 134 120 125 119 93 58 43
80 112 119 145 143 125 124 138 140 105 129 189 158 239 241 266 263 302 92 73 243 236 177 129 164 156 155 145 118 80 71 65
131 140 151 140 115 146 207 196 196 151 132 203 187 222 113 150 249 171 133 122 224 206 187 151 166 146 137 101 85 115 115 120
163 150 140 114 137 187 218 195 173 172 155 165 145 53 38 99 75 117 185 185 259 250 205 175 150 127 95 102 144 176 139 109

GFSFLT1_con_3kmhel_033.txt.gz
Helicity
267 306 303 430 478 501 395 210 214 171 147 289 259 252 295 320 349 355 336 318 294 242 224 181 140 143 165 141 114 107 87 82
429 449 420 422 335 252 180 163 132 168 206 157 205 212 217 226 207 198 190 157 151 136 146 175 147 131 108 102 87 97 81 63
526 484 411 318 201 159 198 188 140 97 89 88 109 128 122 85 73 93 92 99 103 94 79 68 61 79 108 121 128 129 130 144
294 247 153 90 81 89 95 60 63 59 65 68 72 78 77 83 112 140 150 137 124 107 78 49 45 61 92 108 144 187 184 153
74 -5 5 27 26 17 3 -12 0 20 16 39 46 59 68 91 106 89 80 91 91 88 86 75 75 75 93 105 143 144 148 150
-21 -23 -2 -1 7 12 -11 19 17 -4 10 32 53 83 123 137 132 131 134 118 110 72 60 47 52 31 31 65 80 94 80 64
-25 2 10 -16 39 35 58 84 47 67 112 125 141 143 128 153 141 135 118 111 101 70 74 66 49 44 44 56 73 97 108 98
-60 -26 -21 24 83 83 75 119 147 156 191 196 181 176 152 142 135 131 127 108 93 77 51 31 31 39 82 83 92 104 96 106
48 40 110 134 151 138 149 172 170 195 210 214 180 139 114 124 113 103 95 97 98 73 89 68 82 97 74 83 98 92 90 98
166 185 229 224 186 142 144 145 168 174 186 153 104 114 144 131 112 115 135 129 161 128 97 105 108 87 83 84 75 66 91 90
320 315 272 225 166 137 140 150 187 171 177 167 150 112 115 131 163 148 149 117 164 177 119 152 174 120 96 76 64 63 98 84
275 286 266 212 153 134 117 148 160 170 150 120 128 134 139 133 135 136 161 178 194 188 234 249 249 202 159 83 57 65 103 151
378 299 223 167 164 148 68 121 163 121 106 107 133 123 142 159 161 182 169 202 187 244 271 244 211 71 62 71 66 106 132 147
283 232 199 168 106 59 165 142 98 121 111 118 130 149 149 136 111 115 151 145 205 246 235 223 91 40 93 107 116 140 161 128
263 234 162 110 94 161 160 202 186 157 158 161 165 158 126 134 141 151 111 112 185 263 248 146 12 122 102 156 176 174 141 113
226 142 106 156 126 130 206 200 165 141 150 152 145 146 142 135 120 97 84 132 202 198 131 54 120 174 144 161 178 133 106 106
106 197 155 129 141 180 160 139 128 126 134 133 116 142 156 131 106 99 108 146 165 128 129 176 222 155 112 141 123 103 112 122
154 102 88 138 159 130 116 91 94 83 155 151 158 146 129 115 88 72 76 112 134 187 218 210 144 111 117 128 133 133 134 125
96 95 130 132 97 94 82 78 102 151 176 170 150 132 110 91 86 93 98 126 160 138 141 140 120 111 145 151 150 129 118 116

GFSFLT1_con_3kmhel_036.txt.gz
Helicity
102 134 236 329 426 530 572 530 345 201 247 139 156 189 173 127 115 105 107 124 139 132 145 153 130 115 120 116 118 128 115 120
224 224 230 338 357 372 337 267 123 26 43 67 87 45 37 57 71 97 132 147 159 152 125 117 106 102 86 78 56 89 96 109
296 247 192 169 91 60 43 26 -35 -35 -24 -13 18 25 54 62 81 130 144 157 149 126 112 84 67 62 84 84 92 86 85 114
132 107 75 18 15 7 -3 -11 6 2 26 36 42 82 94 92 104 122 132 125 94 85 65 46 41 42 59 66 89 112 112 108
57 56 39 27 19 30 26 8 23 25 -1 -10 -2 8 57 100 129 118 110 133 122 83 61 63 74 84 98 89 87 86 91 93
16 25 53 28 7 9 -11 1 23 46 38 51 70 103 127 127 133 126 126 129 117 105 101 72 49 53 46 32 53 85 110 120
-18 91 107 21 -1 0 11 29 43 72 89 118 142 155 156 141 119 137 142 133 106 102 91 69 57 63 66 74 101 112 119 113
34 143 55 7 47 69 92 99 91 120 146 170 163 141 116 129 143 145 130 128 128 89 102 102 100 101 114 96 140 138 147 162
71 141 135 87 107 123 127 120 120 144 150 135 107 106 127 117 109 114 113 120 119 105 132 153 163 171 153 184 195 200 136 94
148 168 148 131 193 182 141 128 152 128 97 119 96 81 96 104 95 104 122 134 166 165 173 167 189 193 196 187 229 217 169 82
242 222 224 237 237 202 177 146 94 54 73 90 100 115 108 104 125 114 137 154 172 183 179 194 211 226 167 175 108 89 86 73
291 320 325 297 260 217 157 95 65 54 131 160 156 115 115 137 149 159 184 198 206 213 183 180 207 185 203 167 88 67 75 95
334 320 307 285 233 177 152 74 90 178 166 145 130 143 153 168 180 190 187 184 170 153 174 207 230 191 163 46 120 84 99 105
338 318 261 232 210 171 110 187 194 190 187 149 140 157 178 196 189 167 149 129 120 138 208 220 156 166 76 138 145 135 131 135
298 267 259 219 142 127 192 212 198 149 114 132 153 151 150 136 127 125 120 112 132 152 169 137 119 113 123 124 139 113 142 137
235 265 220 154 130 187 201 166 116 105 112 124 108 125 142 136 123 109 107 103 110 133 127 120 108 133 134 138 140 130 129 121
249 222 150 162 195 182 140 102 86 85 73 82 122 150 149 135 122 112 105 93 88 120 133 134 183 154 157 142 130 128 117 116
180 177 185 177 147 119 96 65 54 67 104 143 168 163 137 126 119 119 110 94 107 154 163 156 145 161 159 139 140 127 118 110
182 169 152 133 124 96 75 80 76 101 130 165 155 145 133 124 128 131 103 99 111 115 138 118 121 118 122 121 116 108 104 92

GFSFLT1_con_3kmhel_042.txt.gz
Helicity
40 41 53 68 124 178 198 256 325 382 202 87 77 19 37 54 55 75 93 115 133 141 146 140 121 122 112 91 81 84 72 76
79 85 103 170 199 193 187 172 156 130 -2 22 28 45 31 37 44 61 84 106 126 155 145 125 93 91 73 61 57 51 37 53
94 99 106 96 87 98 60 52 56 21 25 19 9 23 38 63 87 102 119 154 170 145 111 89 78 77 68 71 65 71 94 127
113 128 117 79 78 58 43 33 32 24 40 30 53 74 78 81 100 125 160 164 154 134 119 117 117 108 123 116 124 114 126 107
134 137 110 86 83 54 45 40 31 32 36 74 64 55 82 146 155 197 222 199 181 160 136 119 115 114 110 119 122 126 124 164
155 135 108 89 82 76 23 25 80 110 103 108 98 130 161 168 181 190 185 176 153 136 114 102 99 102 103 111 114 115 126 155
134 122 77 86 63 43 95 96 105 121 111 140 155 172 165 129 122 129 146 144 135 114 110 102 97 99 94 106 121 97 88 77
110 77 64 85 113 115 117 97 137 162 177 185 178 174 155 127 146 152 139 131 119 103 154 127 129 125 118 110 89 66 62 55
75 68 73 113 142 110 114 138 187 212 205 197 188 133 156 145 145 133 116 114 142 168 159 158 147 137 132 104 89 96 79 68
82 80 93 134 143 133 156 199 227 222 211 214 179 139 123 133 124 130 148 153 181 187 163 146 130 123 116 93 73 81 90 95
111 107 130 154 182 189 229 248 253 254 212 200 162 112 144 132 135 149 182 182 160 152 130 116 105 108 106 92 79 88 96 76
131 144 161 201 231 264 280 266 284 224 198 162 107 157 141 136 152 173 171 144 130 112 103 98 107 114 111 118 91 81 87 58
161 189 208 241 278 286 284 322 300 164 142 99 143 143 137 150 166 155 145 118 103 97 96 101 113 129 128 94 110 68 52 73
201 222 222 256 273 291 316 252 165 131 116 145 154 136 140 154 150 129 110 103 96 97 107 113 132 142 115 100 78 74 85 95
207 211 241 278 266 308 309 137 108 159 138 129 133 140 146 142 131 111 105 110 106 119 113 119 184 140 109 104 103 93 87 79
248 247 273 275 282 276 179 146 175 137 129 118 128 126 127 134 113 103 114 120 126 123 135 162 144 140 161 129 102 82 67 66
238 263 270 260 248 225 195 180 168 129 103 100 107 116 122 119 111 112 118 122 116 117 152 141 164 161 178 144 91 54 53 56
260 247 230 241 236 216 195 194 141 105 91 92 112 124 115 112 119 126 119 118 135 129 153 140 130 150 142 93 61 38 51 62
238 249 267 258 252 299 217 142 111 84 78 95 110 114 115 127 132 125 121 147 135 129 127 121 113 153 108 74 41 27 46 61

GFSFLT1_con_3kmhel_045.txt.gz
Helicity
36 29 31 48 122 141 112 168 274 172 192 204 172 91 45 55 35 41 26 56 92 99 111 127 94 94 101 106 72 71 68 69
36 39 41 63 175 211 220 252 152 142 88 51 38 23 65 49 47 62 71 59 60 95 130 120 106 108 84 64 69 55 66 83
63 69 94 156 211 217 169 115 73 46 48 41 32 56 58 59 63 53 75 96 115 121 117 111 120 81 93 108 87 89 111 139
93 110 141 164 139 101 77 69 76 40 77 83 86 87 88 73 77 76 127 119 136 128 139 131 134 123 139 143 138 128 154 131
110 122 138 135 108 70 48 74 51 80 76 104 110 99 99 132 145 182 155 169 170 173 181 170 156 145 135 140 132 153 107 132
128 136 157 149 103 74 84 70 94 133 99 120 87 82 154 151 153 201 147 157 133 141 126 138 128 113 117 111 108 137 167 178
145 180 173 160 104 119 119 80 153 143 123 123 137 198 152 155 152 129 107 148 131 147 174 178 162 119 124 140 129 126 159 107
174 170 142 115 105 120 123 125 140 146 160 179 196 202 185 203 168 136 175 143 162 180 219 140 119 126 126 121 125 145 103 86
123 118 104 105 121 138 112 106 143 161 190 214 223 217 177 182 166 148 145 141 147 144 151 136 109 106 112 110 121 147 102 100
105 119 98 130 125 133 105 145 204 243 253 257 253 193 168 152 169 147 116 144 137 138 152 124 113 111 102 100 120 121 100 76
97 120 131 132 119 162 141 173 244 274 276 275 241 203 105 136 134 124 142 138 135 123 123 113 105 104 110 113 99 126 88 141
95 126 154 142 167 216 179 220 327 299 308 265 181 109 142 116 117 150 152 148 120 125 112 108 105 110 87 169 142 100 113 111
116 141 205 164 182 189 237 258 340 330 338 246 77 126 127 123 135 144 149 136 121 108 106 108 106 89 154 238 159 88 81 113
177 204 200 201 180 218 280 306 369 373 291 54 86 123 129 123 140 153 137 126 111 108 111 110 102 139 195 185 164 112 121 115
224 204 188 191 205 271 290 372 302 222 150 103 152 160 127 136 150 138 128 115 112 109 120 116 126 150 125 130 140 171 165 130
198 200 184 202 262 285 366 317 251 197 124 167 167 146 128 117 124 133 118 111 113 112 96 144 125 133 219 237 182 152 120 70
158 170 199 226 261 299 257 306 240 230 214 199 128 120 105 100 136 117 108 118 115 111 136 167 140 152 254 213 163 117 65 57
152 180 222 249 317 234 291 287 326 242 229 130 128 111 101 115 110 117 130 131 113 142 149 141 141 202 205 181 130 73 48 61
163 227 272 293 282 271 358 389 248 236 149 117 84 88 93 92 100 114 118 126 158 160 130 136 137 190 195 156 99 37 49 52

GFSFLT1_con_3kmhel_048.txt.gz
Helicity
69 40 49 143 205 280 179 292 256 186 161 154 123 118 110 34 -2 63 67 72 57 17 50 61 56 95 127 107 97 82 74 81
162 71 80 175 272 314 341 277 201 166 146 118 121 130 83 88 75 72 43 47 72 68 109 91 110 104 100 97 117 93 70 62
133 97 120 182 301 405 348 230 166 73 65 91 81 89 86 84 102 73 100 87 61 70 80 129 185 148 123 173 152 116 117 137
118 124 125 243 411 394 241 165 91 20 95 117 114 114 169 159 146 74 108 73 82 116 145 164 186 174 157 142 133 156 145 122
125 119 238 267 239 231 101 48 39 58 118 123 142 158 131 101 133 203 196 159 131 171 180 175 161 140 127 139 143 138 149 167
219 288 221 152 141 60 2 37 89 140 139 161 130 129 210 211 241 338 278 182 169 144 133 127 164 190 169 168 178 174 174 180
210 190 141 53 60 82 155 140 191 191 151 182 127 152 243 286 240 252 194 156 231 210 285 338 306 233 211 185 167 161 163 194
239 217 221 287 191 168 150 130 254 213 164 195 242 273 300 306 303 244 271 260 234 250 272 277 227 188 159 154 150 143 146 200
161 209 219 231 195 174 133 161 250 222 206 229 275 287 235 281 298 253 238 252 225 229 223 200 177 165 159 156 152 145 132 189
152 186 217 213 186 155 120 176 244 279 240 333 347 322 352 309 269 249 236 251 218 236 198 183 166 154 149 146 160 146 163 218
118 173 179 211 202 176 128 139 324 301 385 409 344 349 296 212 183 148 259 218 204 180 169 162 149 143 136 143 158 249 212 201
143 164 209 197 240 226 256 172 303 396 509 412 478 422 335 343 84 195 243 223 180 164 162 151 134 138 131 148 246 244 188 145
159 130 237 274 334 323 332 254 366 480 551 564 357 288 188 159 175 183 220 197 159 147 158 143 140 150 157 200 220 198 175 179
162 156 272 330 373 396 316 327 352 527 558 343 175 156 208 261 178 219 213 169 171 169 146 139 150 167 152 129 141 162 184 192
131 169 272 382 401 346 320 397 529 543 317 206 288 179 315 280 223 207 184 194 160 143 133 144 152 191 156 150 181 199 187 183
99 199 339 406 359 318 395 544 547 332 281 261 316 404 385 205 164 168 187 150 128 135 126 150 219 204 235 220 213 186 184 158
213 194 264 299 299 412 525 513 351 237 297 421 420 260 152 219 206 154 113 132 159 144 133 212 212 169 245 196 191 182 165 124
176 178 216 280 380 442 502 390 318 420 468 424 189 170 178 173 130 111 131 155 139 141 232 201 168 176 211 178 183 163 127 98
128 189 290 389 450 484 489 423 468 518 437 204 245 251 164 86 85 101 117 142 177 222 196 149 168 150 215 182 161 135 104 84

GFSFLT1_con_3kmhel_051.txt.gz
Helicity
118 211 232 217 190 233 313 250 221 252 271 250 198 163 126 127 124 107 53 46 86 84 83 79 105 91 70 59 51 54 32 20
128 215 283 339 336 406 315 312 234 249 231 188 151 121 118 77 57 69 80 104 119 111 77 75 85 89 69 61 75 73 42 42
178 222 296 384 429 438 358 312 219 196 172 110 107 125 68 47 88 112 114 122 104 93 102 104 125 125 123 120 108 80 62 61
304 258 285 357 472 429 343 284 197 154 86 83 126 132 139 165 158 145 128 120 102 67 89 98 139 121 103 95 88 91 79 65
305 285 326 434 410 321 225 180 122 83 45 123 143 167 204 153 133 135 140 121 107 114 123 130 149 130 130 103 111 111 124 114
362 379 360 320 269 160 101 145 98 80 113 164 190 173 174 187 214 244 197 158 157 175 197 247 245 216 200 194 164 149 134 138
310 305 317 299 228 164 156 114 71 94 164 177 192 187 285 352 330 292 247 224 248 329 371 372 330 288 243 195 160 147 139 145
379 367 373 292 176 143 123 99 123 206 283 248 257 319 355 373 367 373 355 294 353 363 320 307 268 215 176 177 164 149 136 148
290 318 347 289 220 161 161 245 275 261 269 325 347 357 402 431 434 387 367 330 311 260 233 195 177 158 155 151 149 143 144 164
312 339 325 308 308 254 239 278 287 306 310 313 346 391 403 423 408 419 485 518 372 220 203 197 168 152 151 142 142 153 207 199
249 329 366 360 325 245 219 242 269 305 379 392 403 448 402 392 381 436 315 291 263 221 181 169 159 150 135 143 160 190 196 170
257 311 353 372 341 287 183 204 303 406 480 518 627 589 545 366 454 172 359 215 227 207 172 163 150 138 169 177 190 175 170 163
257 277 356 379 365 329 288 346 451 546 661 658 602 536 448 285 300 270 205 222 218 208 181 153 127 152 156 147 132 125 169 165
288 286 312 388 404 423 471 523 591 619 574 564 480 373 277 291 161 298 234 281 237 182 167 123 121 155 162 145 125 167 173 159
258 261 309 490 497 422 516 536 549 617 596 466 371 378 221 264 456 330 262 203 175 159 119 107 164 214 215 183 190 212 191 169
197 321 494 464 430 466 534 547 577 552 469 474 567 454 506 443 414 228 173 155 125 133 117 160 230 211 184 173 177 207 199 184
227 345 360 347 388 482 541 544 514 517 628 640 513 474 527 283 229 153 174 136 129 120 170 210 206 194 159 145 163 177 166 155
169 119 111 195 337 422 520 525 629 694 642 549 525 497 322 228 231 158 107 104 107 171 223 203 166 132 114 142 164 166 147 131
150 196 316 421 505 570 594 652 645 578 588 615 572 482 374 304 130 86 68 72 116 187 183 166 157 129 105 141 159 160 142 123

GFSFLT1_con_3kmhel_054.txt.gz
Helicity
48 123 119 132 113 184 180 177 219 233 250 239 234 234 189 159 156 143 145 160 154 146 165 156 139 133 110 93 67 26 -30 -19
84 182 191 160 141 194 193 206 196 248 263 259 231 185 157 154 136 129 150 148 120 142 137 126 114 107 82 25 18 29 34 55
169 198 210 235 235 183 197 192 210 225 250 245 186 145 106 101 90 99 127 135 134 128 104 90 66 56 47 79 84 75 67 65
332 309 312 308 315 276 224 217 204 211 221 239 187 188 177 141 101 119 120 135 125 130 106 80 71 94 72 84 96 89 67 42
397 431 421 443 352 327 277 244 183 165 206 222 189 179 220 125 153 151 140 131 113 97 107 116 128 120 111 102 85 68 59 80
470 463 487 482 446 407 350 195 152 149 200 173 149 140 147 161 195 207 180 138 148 182 203 215 256 212 157 142 141 116 77 85
442 442 446 314 293 346 271 181 126 139 175 114 157 151 186 237 256 254 223 264 341 367 397 319 376 236 168 169 150 126 123 135
416 466 394 318 284 252 284 259 209 145 120 124 152 176 236 243 313 317 378 450 500 367 362 448 459 244 173 130 126 132 146 141
354 406 339 337 268 254 250 184 170 146 155 209 212 244 331 352 373 413 495 499 376 279 344 276 200 163 142 126 140 139 131 142
293 362 340 259 246 234 192 186 213 217 257 347 374 399 447 489 538 488 540 377 219 309 338 257 135 222 123 118 117 122 133 147
221 228 241 228 205 159 191 219 256 290 327 344 376 415 482 500 505 547 429 487 332 281 189 207 170 185 155 135 118 114 139 142
189 196 200 215 216 261 241 250 307 349 436 496 603 554 655 727 598 461 411 453 326 154 275 168 156 139 130 119 108 108 119 132
227 264 329 331 347 344 348 291 340 483 645 768 755 729 625 531 443 581 162 182 348 224 197 159 144 114 91 111 110 135 135 129
265 349 382 404 386 341 470 610 611 648 730 754 657 665 628 366 349 406 361 169 261 223 189 195 122 124 130 134 147 149 134 126
265 332 340 368 426 577 643 520 608 522 685 612 532 542 366 405 346 265 338 389 255 201 177 147 135 112 140 160 170 167 166 173
203 298 393 465 560 619 574 642 623 646 573 633 554 495 498 518 436 459 420 243 243 150 112 131 108 148 162 145 142 136 150 167
185 302 384 447 518 593 617 603 568 599 626 623 620 557 560 464 373 458 375 204 148 99 91 122 154 161 131 108 121 135 147 163
155 208 294 356 385 483 512 573 660 701 672 592 548 512 547 560 623 255 120 94 64 70 105 156 148 150 126 111 104 153 168 159
193 241 340 389 436 524 664 682 679 642 629 617 618 632 655 505 138 41 103 66 54 108 140 141 160 160 132 115 122 172 170 160

GFSFLT1_con_3kmhel_057.txt.gz
Helicity
-22 -43 -8 -3 23 67 112 125 132 137 164 181 183 177 155 139 148 178 193 204 213 221 184 150 141 132 111 97 66 58 6 -38
-31 -39 -38 -12 47 146 203 209 185 224 224 224 206 198 190 176 162 183 184 183 187 178 152 130 113 127 82 46 28 -1 -27 -18
-3 -2 38 85 117 159 175 195 232 209 234 243 227 233 176 152 170 176 157 143 148 138 132 119 115 108 91 28 7 9 21 33
82 88 149 183 176 191 179 189 217 232 235 265 269 280 224 198 200 188 125 140 136 143 133 130 132 134 70 52 88 81 69 39
140 170 185 225 235 229 195 196 217 202 223 244 278 231 206 182 195 152 152 134 141 154 180 178 153 146 127 123 129 97 63 45
252 289 272 250 251 280 268 267 232 215 186 220 206 188 154 163 192 178 171 168 194 227 200 186 165 182 203 155 154 143 92 88
240 295 292 339 297 283 333 299 282 222 218 206 227 146 144 168 198 211 195 227 243 283 279 316 250 194 208 292 226 109 133 137
405 395 404 441 393 278 273 272 211 254 277 261 140 110 144 147 192 228 311 349 386 429 472 499 167 520 189 151 241 122 160 146
482 465 424 446 342 289 282 251 213 257 269 159 115 131 176 184 249 347 426 545 636 860 437 261 307 334 236 305 234 167 145 172
373 371 364 380 317 246 269 225 224 235 157 154 175 192 254 327 406 476 614 619 677 472 263 328 259 261 141 201 203 163 132 124
210 263 296 323 250 225 244 256 205 172 192 208 245 331 402 502 581 747 771 640 693 417 646 268 143 179 158 201 152 132 114 107
99 149 215 253 238 223 199 207 204 230 276 348 400 513 663 741 715 775 747 445 406 389 301 287 104 204 175 135 143 125 103 88
86 107 144 192 206 208 218 193 265 320 416 536 617 650 767 758 638 605 390 354 301 180 293 43 230 176 159 132 108 83 90 100
87 127 166 216 244 271 275 386 515 589 648 679 759 604 698 504 478 346 370 303 263 161 153 253 172 170 130 92 76 88 104 114
157 178 213 253 330 420 483 544 606 635 649 751 645 646 543 441 382 306 376 336 158 225 233 158 148 112 91 78 105 125 128 135
199 217 243 299 434 492 486 541 549 608 650 593 550 490 453 437 478 481 370 347 264 199 149 145 103 101 103 105 123 139 135 143
136 189 273 354 441 486 537 545 569 597 601 543 564 517 468 417 384 442 375 292 178 123 87 107 118 120 93 103 143 157 153 168
155 168 250 333 378 424 471 528 588 582 546 559 495 455 477 489 487 468 442 187 88 79 89 122 115 113 98 120 131 184 189 191
184 189 235 267 330 403 483 515 567 591 595 569 538 525 578 534 617 265 104 103 119 119 112 106 128 127 116 129 129 197 217 205

GFSFLT1_con_3kmhel_063.txt.gz
Helicity
25 22 21 31 32 47 44 54 34 5 5 -1 6 10 15 31 38 51 76 82 105 132 149 167 160 148 138 137 143 144 124 105
10 27 35 41 42 41 54 35 16 41 35 27 17 25 31 37 47 63 74 100 125 165 170 172 155 156 164 166 176 156 136 75
3 -3 -7 3 41 57 25 14 38 44 36 51 48 59 51 60 75 91 77 123 151 172 177 181 191 205 185 176 181 157 113 53
25 14 11 5 24 53 34 28 43 55 53 97 123 136 104 108 121 103 102 129 154 160 186 206 218 209 199 202 211 179 130 89
25 44 17 16 -10 2 26 39 64 82 107 122 154 143 163 149 146 132 137 149 172 190 224 246 245 234 231 245 227 188 207 114
37 54 52 39 31 50 54 62 83 100 116 124 134 132 157 194 178 204 194 179 204 224 247 273 276 285 284 263 263 226 280 100
21 20 40 48 61 63 75 78 93 127 131 164 138 134 176 218 194 241 209 203 244 241 259 278 318 355 357 358 243 212 202 181
30 46 81 106 112 113 114 115 130 177 193 194 170 164 195 212 183 236 223 238 283 291 313 376 392 379 379 489 129 209 197 162
44 70 107 163 187 148 144 188 156 156 222 222 230 231 215 209 202 182 192 249 261 314 382 408 449 409 350 246 108 155 146 199
25 26 102 147 218 261 230 216 190 179 205 251 242 202 201 193 158 104 159 231 330 387 364 488 497 240 295 205 155 185 168 201
25 37 72 93 135 189 200 183 189 216 198 219 239 225 216 230 158 126 187 304 439 447 395 416 419 211 236 242 202 165 178 196
33 55 55 66 102 123 130 136 124 154 168 217 216 175 194 195 172 206 244 379 512 503 311 387 204 275 258 224 104 152 163 150
21 26 43 54 44 72 95 104 104 100 117 155 146 160 184 232 263 277 333 362 450 307 309 273 316 247 197 161 134 143 174 143
24 15 14 20 32 49 61 83 88 121 152 195 218 246 252 296 315 372 393 263 309 330 410 339 187 91 157 135 133 154 145 113
53 58 61 46 36 42 73 122 139 175 202 231 263 295 316 324 347 270 291 235 361 522 293 150 132 135 103 143 128 133 126 113
88 87 98 100 111 131 159 182 191 213 252 238 217 199 240 294 345 371 244 317 280 207 114 135 132 107 119 87 117 124 124 132
170 144 145 136 135 151 174 196 218 203 194 211 254 278 274 310 259 344 248 372 252 222 124 98 74 81 91 100 111 133 140 150
223 206 167 158 170 169 189 212 215 220 218 226 279 312 339 356 354 282 320 196 112 81 69 60 63 58 100 103 112 133 156 167
184 161 162 152 142 171 199 209 225 242 276 305 325 335 343 316 326 190 177 81 51 37 72 86 93 86 95 94 105 138 176 179

GFSFLT1_con_3kmhel_066.txt.gz
Helicity
3 15 31 19 25 23 23 22 13 -4 -30 -17 -22 -49 -34 18 29 32 49 53 64 74 94 126 118 126 134 125 127 123 123 113
24 20 22 72 66 45 43 37 25 -18 -36 -28 -17 -8 -0 7 24 29 46 48 65 76 113 134 128 137 159 153 147 132 144 136
29 26 28 43 56 58 51 37 8 -8 -12 -5 -2 -2 9 18 35 39 51 73 75 85 119 134 142 191 189 178 158 170 179 167
58 49 31 11 14 32 22 13 -0 2 -4 7 16 17 25 31 52 65 69 84 80 107 120 150 178 193 194 181 178 163 163 172
18 36 44 34 12 2 16 3 1 6 22 30 41 52 39 43 55 65 90 103 109 124 141 177 191 208 209 191 184 193 190 126
28 45 40 34 13 12 11 17 24 31 51 50 60 52 53 77 79 87 111 138 162 145 170 209 218 217 210 215 238 228 163 179
33 20 8 20 29 29 39 47 53 62 75 75 77 86 103 136 98 139 203 210 192 174 170 195 211 221 240 268 258 207 177 157
-0 3 23 23 43 51 53 63 76 81 95 94 79 74 95 103 94 163 200 206 220 195 170 184 242 254 260 311 261 207 155 129
4 -2 17 35 70 72 89 95 98 123 122 104 126 110 80 147 182 191 236 240 225 139 163 203 263 274 354 358 190 159 167 115
4 4 20 39 68 96 124 104 101 123 120 144 111 102 147 152 161 184 253 203 156 170 191 246 311 405 375 275 233 200 188 140
23 15 18 26 24 34 72 88 104 119 127 151 166 184 120 127 141 147 220 163 120 116 207 334 511 330 270 212 234 201 189 135
16 40 53 54 54 53 36 42 61 88 100 103 123 142 141 121 170 137 212 211 143 158 300 419 389 299 332 250 200 186 45 131
29 38 47 70 64 72 72 75 87 90 100 105 127 120 167 232 214 244 234 312 430 524 444 317 292 439 469 255 91 72 97 143
55 60 62 60 46 50 57 69 86 107 145 196 230 233 250 255 272 331 377 326 233 182 248 379 318 299 117 73 33 76 132 139
65 79 75 82 91 104 109 127 167 183 183 199 210 212 216 212 217 240 222 235 244 238 229 204 168 158 61 41 80 111 107 101
76 94 138 151 152 161 167 184 205 214 213 206 211 221 215 234 286 309 315 276 144 142 201 157 113 63 82 100 82 90 84 87
83 121 182 217 216 232 211 216 210 236 271 293 295 272 266 269 285 304 272 206 160 179 169 118 52 59 59 70 62 70 79 95
174 194 205 227 227 201 215 224 222 262 269 276 254 241 252 232 254 238 166 170 124 102 92 57 36 58 97 82 89 101 103 105
215 214 211 198 184 187 177 178 202 226 246 229 213 224 242 219 163 114 108 90 100 62 83 94 86 69 114 88 95 111 133 137

GFSFLT1_con_3kmhel_069.txt.gz
Helicity
55 20 4 26 7 0 20 40 36 23 -6 -13 -29 -48 -50 -51 -31 19 38 55 56 33 50 96 90 119 106 106 115 113 100 115
61 44 29 33 25 41 32 42 22 -6 -22 -29 -34 -28 -27 -24 20 36 44 39 39 42 65 94 81 109 115 130 135 144 129 118
59 63 105 76 74 23 16 5 6 -15 -20 -24 -28 -15 1 5 51 35 37 49 57 56 81 110 102 113 130 140 140 133 126 121
99 91 64 69 44 32 1 1 -6 -13 -24 -18 -14 -7 1 17 58 65 63 60 64 67 103 128 121 118 147 137 138 130 144 146
48 59 60 41 16 8 10 0 -7 2 -24 11 12 19 32 35 75 59 52 57 79 85 111 117 147 146 154 151 131 148 142 222
56 77 56 47 31 17 17 7 3 22 44 8 42 29 48 56 117 93 112 99 82 137 127 143 149 179 174 180 160 153 193 190
31 53 54 53 39 36 29 30 36 38 73 61 52 65 43 62 159 164 147 146 147 173 164 225 199 151 187 177 197 229 223 227
66 37 45 31 57 61 50 53 52 79 81 86 76 78 68 65 138 114 219 183 193 208 204 271 266 169 178 202 253 285 232 225
69 62 74 48 43 69 65 67 68 89 96 91 78 71 92 108 67 96 167 171 166 186 232 283 271 186 217 287 401 264 232 201
50 42 48 75 69 100 114 78 73 67 124 93 80 104 114 168 144 144 183 208 259 238 257 279 202 226 378 492 424 346 255 199
30 43 38 32 72 79 118 68 74 96 133 122 89 125 154 182 193 168 178 186 187 257 346 295 267 471 479 336 326 242 357 262
27 30 43 70 80 97 128 81 78 109 128 159 159 162 206 216 234 213 147 204 242 371 351 414 491 516 414 311 304 316 350 146
44 31 39 58 71 93 118 111 76 91 115 181 167 167 229 209 274 312 375 391 450 557 484 421 325 233 213 312 232 168 157 73
52 61 71 64 75 88 84 102 95 122 161 362 392 321 307 310 320 321 323 336 367 371 313 297 293 234 215 167 118 119 68 31
30 61 77 80 89 87 116 206 278 342 340 306 287 254 259 269 290 302 328 300 292 290 225 200 185 158 161 117 89 53 22 109
74 75 137 138 170 182 243 250 260 269 293 286 282 295 300 304 314 339 326 303 269 207 179 133 114 138 126 90 117 110 130 114
96 87 168 203 248 310 261 280 296 312 346 322 297 299 307 324 315 294 283 264 217 196 177 121 124 129 101 90 114 122 116 96
124 143 181 192 240 314 277 257 270 283 278 279 282 300 294 285 279 258 218 232 212 153 126 116 100 86 155 188 177 124 105 88
218 239 234 210 233 257 213 189 178 187 194 221 218 236 255 239 226 221 221 173 126 108 92 115 145 176 187 185 165 113 105 101

GFSFLT1_con_3kmhel_072.txt.gz
Helicity
66 40 -19 -27 -50 -165 -190 -177 -105 -95 -118 -95 -69 -39 -36 -31 -33 27 30 -5 43 57 83 74 106 129 135 124 114 91 120 78
90 74 56 -13 -89 -75 -47 -18 3 -9 -33 -41 -37 -7 -22 -40 3 28 42 34 64 74 22 107 167 129 133 116 139 145 135 167
134 195 167 50 1 10 14 29 40 2 -17 -23 6 6 -4 -6 8 72 67 63 72 73 57 166 146 123 143 209 178 184 138 161
164 190 230 181 79 6 1 79 67 34 -0 -23 -2 1 -4 3 118 107 88 61 78 83 77 165 152 108 207 247 189 162 148 219
114 197 183 190 118 18 17 38 134 46 -10 35 58 40 35 61 126 119 100 121 85 93 110 144 195 160 217 259 188 170 158 265
231 165 165 125 80 58 -11 -30 9 48 51 -11 128 65 43 30 69 210 150 141 105 100 149 190 221 215 221 275 221 187 202 291
93 197 152 96 97 53 101 47 11 3 164 65 102 106 46 54 181 200 192 178 234 151 158 204 208 212 300 299 211 229 316 377
183 188 188 158 130 114 104 120 51 27 195 158 128 126 112 77 123 267 213 236 248 229 236 233 245 303 372 387 404 352 427 367
163 158 250 184 175 196 170 153 109 76 141 211 184 120 147 106 87 260 277 333 297 272 205 193 229 335 413 438 413 552 454 399
58 165 162 244 261 257 240 172 135 88 151 201 182 182 141 144 151 240 260 274 276 230 177 225 334 503 568 526 596 496 433 316
5 25 145 189 238 323 264 205 140 126 114 204 196 197 170 156 255 248 285 334 328 320 373 396 460 511 535 526 543 534 413 271
29 28 25 155 185 250 305 287 188 122 139 211 247 238 246 314 345 245 329 353 366 375 434 439 455 569 598 652 442 285 242 146
53 28 37 48 67 139 240 241 267 165 156 265 302 330 343 331 387 411 411 429 372 376 390 409 405 358 303 337 350 257 196 165
101 74 64 61 93 148 181 195 210 156 159 298 436 584 549 526 416 380 366 385 392 399 373 334 360 399 280 268 229 201 156 126
40 124 120 84 91 100 195 364 414 422 414 555 601 502 423 389 346 351 347 364 415 399 361 364 316 253 209 192 163 143 120 112
22 45 180 212 250 386 401 459 432 391 410 448 437 432 418 348 329 327 387 371 375 352 350 343 272 192 153 142 134 157 158 133
150 108 196 311 484 351 341 411 383 358 380 376 385 354 355 334 360 371 378 374 361 348 309 216 185 139 132 132 149 160 158 142
125 157 355 471 407 371 324 342 358 383 371 346 339 336 300 298 321 352 351 331 300 244 203 164 160 169 140 175 195 156 142 134
179 293 344 471 437 395 314 281 289 301 308 310 295 285 296 294 314 306 274 231 196 171 165 174 167 326 316 242 175 135 147 158

GFSFLT1_con_3kmhel_075.txt.gz
Helicity
34 -31 -55 -11 -6 28 8 -10 6 3 2 -22 -65 -129 -151 -136 -108 -50 -25 -27 -45 -44 38 94 121 145 143 140 120 116 113 109
63 12 -43 -44 -55 -157 -165 -162 -128 -123 -157 -144 -158 -170 -125 -78 -42 2 -14 -32 18 32 65 79 93 160 150 142 150 132 154 151
80 66 -2 -48 -101 -94 -89 -67 -66 -87 -108 -117 -91 -81 -66 -31 -14 10 52 58 36 52 98 105 96 154 156 161 191 201 172 197
175 129 103 5 -57 -61 -44 -33 -35 -32 -27 -64 -66 -61 -60 -70 -48 4 49 98 104 93 89 115 140 179 185 189 213 233 226 208
304 179 149 99 -1 -7 11 -0 8 10 9 -10 5 -3 15 8 6 35 99 115 117 130 115 146 179 194 197 224 258 242 266 269
338 312 220 166 75 37 33 13 -7 5 10 31 2 41 74 63 85 145 160 136 153 159 173 146 185 215 197 246 234 238 326 347
319 308 269 215 121 54 22 9 39 51 41 59 90 109 124 88 141 189 192 170 156 157 211 158 178 270 257 403 254 350 461 410
294 292 306 223 160 80 40 23 41 132 91 101 142 250 189 141 142 225 267 243 222 186 236 237 211 258 303 310 334 491 574 663
313 355 333 271 228 179 84 56 47 92 171 204 204 255 222 192 198 258 324 299 284 247 217 245 235 233 290 387 512 619 717 589
289 313 350 325 289 244 202 190 129 98 146 184 202 243 229 183 169 253 286 331 279 329 275 239 264 323 413 469 517 573 469 637
141 245 306 335 339 354 291 286 273 261 180 200 225 218 207 256 213 267 322 293 327 312 310 349 339 368 387 465 437 492 561 445
64 91 209 331 340 350 338 297 264 212 197 185 261 305 281 235 295 405 351 316 425 420 406 383 373 378 392 428 417 415 361 361
75 43 97 186 266 220 342 338 379 210 103 167 173 316 473 356 235 322 402 399 388 388 345 344 358 356 352 299 339 347 286 254
121 123 41 106 46 158 272 353 455 180 98 172 381 410 397 408 442 449 477 426 380 304 331 337 338 359 359 367 254 274 178 235
108 153 110 91 166 182 296 433 371 376 329 422 430 439 491 443 416 418 350 348 338 388 369 368 355 332 293 296 266 259 228 185
2 129 215 310 325 344 440 536 526 473 482 469 472 501 518 415 410 394 367 367 377 406 415 362 333 295 310 262 237 217 190 161
155 167 295 350 383 417 445 418 388 408 416 418 434 464 463 411 389 355 383 398 408 390 362 314 350 333 242 196 215 206 205 200
227 216 280 382 487 492 450 416 361 373 391 358 349 367 385 380 377 373 356 371 340 323 319 333 301 270 197 188 193 196 204 205
287 361 445 464 514 509 459 407 400 385 400 385 343 338 329 317 337 330 286 289 305 294 264 272 319 279 307 285 273 257 247 222

GFSFLT1_con_3kmhel_081.txt.gz
Helicity
73 80 1 43 55 74 137 171 271 270 370 246 221 246 229 157 161 93 124 112 117 125 57 43 58 95 110 109 108 101 85 73
71 82 25 -14 26 38 64 80 121 166 334 194 146 336 262 214 117 88 131 120 131 49 39 40 -48 86 59 85 127 110 111 122
89 72 87 -30 -30 -12 34 56 75 98 96 24 133 130 166 141 161 167 158 81 50 -87 -89 -59 48 84 111 141 161 156 127 156
135 116 52 27 -16 -23 -21 -16 -23 -10 15 27 106 14 -1 -23 -35 14 -9 1 -133 -123 -99 -41 52 128 137 150 179 201 187 182
135 130 103 55 21 9 4 12 19 0 -18 -45 -4 -18 -48 -101 -107 -47 -101 -99 -162 -146 -118 -15 86 112 136 156 183 221 242 237
146 110 77 59 51 19 -3 -3 -14 -30 -33 -40 -41 -56 -123 -150 -146 -210 -257 -193 -105 -68 -104 11 69 128 124 166 213 216 254 240
101 61 57 58 42 27 9 9 -27 -51 -59 -52 -51 -73 -136 -188 -193 -201 -239 -226 -173 -171 -91 8 89 108 149 178 181 210 253 254
155 151 128 91 128 95 75 62 46 4 -17 -36 -55 -59 -60 -72 -70 -68 -83 -108 -99 -50 49 79 71 111 181 233 241 202 237 254
158 179 163 133 147 144 133 98 61 79 51 32 12 -25 -39 -48 -40 -18 -10 22 50 105 115 119 137 201 206 253 238 228 285 308
158 162 188 177 174 207 215 161 89 95 86 65 58 28 5 -26 -47 -30 23 70 110 139 174 169 194 264 265 227 244 220 285 305
133 168 198 193 207 217 232 211 172 117 89 67 67 67 47 33 26 50 96 136 170 188 148 191 252 252 214 194 225 215 281 317
169 197 235 277 240 248 229 215 221 142 120 113 93 107 114 111 105 127 220 297 371 349 220 288 156 145 242 277 293 301 320 352
134 173 211 259 317 318 326 309 267 233 209 204 226 109 95 97 121 252 290 302 364 347 216 267 152 74 177 291 310 343 346 317
70 74 140 184 248 292 326 335 349 356 207 148 188 178 148 206 255 288 335 355 465 334 345 273 291 254 265 298 292 319 315 311
115 85 103 111 161 229 247 266 319 333 299 275 322 373 352 291 332 386 417 433 327 327 370 295 289 330 323 295 318 333 344 329
102 127 89 118 143 176 192 182 225 243 258 320 339 378 376 390 376 400 428 435 408 388 345 349 368 326 341 347 319 342 381 422
197 115 130 133 165 197 235 300 300 343 378 408 416 436 404 355 330 351 367 370 365 352 358 336 344 367 357 369 424 374 395 369
148 133 146 164 244 249 246 298 333 338 357 342 348 335 319 283 295 308 301 302 317 330 359 399 434 401 388 401 419 433 430 455
125 177 239 259 300 323 331 304 285 285 289 277 284 252 257 259 277 280 318 327 336 353 391 420 427 413 412 456 506 483 433 323

GFSFLT1_con_3kmhel_087.txt.gz
Helicity
110 102 158 35 46 62 119 101 129 145 141 154 169 209 313 290 318 200 219 98 66 117 119 103 92 85 73 103 71 50 51 65
127 110 143 16 38 74 96 123 126 116 102 172 144 172 181 233 288 266 101 67 117 131 119 105 95 68 66 97 73 68 77 98
132 101 108 45 22 54 80 113 124 119 117 140 113 204 180 234 215 131 162 195 156 109 128 93 69 73 53 76 84 88 87 116
128 109 78 112 70 99 88 90 124 146 170 170 218 152 177 215 217 206 104 127 215 169 90 66 46 48 38 58 79 66 73 105
93 100 82 77 95 92 117 77 71 114 163 175 178 52 162 144 157 197 169 54 -70 -65 -10 11 -9 -4 -12 35 78 66 111 127
75 104 103 83 94 106 88 95 90 31 57 79 110 28 2 97 128 66 50 54 18 -67 -82 -59 -41 -9 12 31 79 77 106 132
39 77 80 90 72 71 73 55 56 65 87 86 48 36 35 62 36 44 19 11 -29 -53 -68 -57 -29 -19 -4 10 48 48 97 135
51 81 82 72 89 82 54 36 31 33 33 28 11 19 19 22 42 72 24 -47 -71 -59 -31 -20 -40 -50 -30 -5 0 50 133 186
38 77 85 77 75 65 65 55 23 16 21 4 -27 -18 -32 -29 10 40 41 15 -35 -71 -57 -61 -91 -123 -106 -32 32 80 124 152
68 48 83 72 87 88 81 58 32 28 17 -8 -13 -22 -28 -36 -41 -56 -53 -60 -48 -56 -67 -55 -76 -51 -71 -35 0 16 46 117
66 53 60 73 73 94 89 74 78 58 43 34 17 28 10 -6 -18 -11 -13 -67 -112 -116 -101 -89 -60 -46 -29 -14 -12 37 104 152
66 46 27 50 83 93 87 81 70 73 53 51 40 37 41 42 37 16 12 4 -4 -21 -16 -2 32 54 88 51 10 28 90 154
56 39 37 64 105 112 106 98 87 92 92 72 51 49 55 56 60 64 60 44 61 57 68 81 104 109 127 157 146 79 131 192
53 44 51 77 87 94 152 176 191 160 135 134 94 73 71 82 49 57 80 72 86 67 74 95 101 163 217 218 182 143 218 220
45 45 38 55 77 78 111 144 178 195 198 192 170 137 144 143 101 118 130 102 76 90 107 119 147 189 237 270 242 228 262 220
52 37 46 66 74 73 74 65 123 157 161 165 157 132 108 91 103 116 113 109 119 102 101 131 162 199 274 311 301 293 276 246
63 40 66 70 109 111 106 106 87 102 106 114 95 88 94 93 110 112 140 153 159 149 156 162 187 239 267 278 301 296 301 401
33 59 81 87 111 144 122 127 116 86 76 76 111 122 123 154 170 162 149 162 205 195 201 222 226 207 211 244 294 339 405 429
41 92 100 129 147 148 163 155 171 151 146 149 138 129 121 129 161 185 202 212 213 205 215 234 276 301 374 413 408 396 438 415

GFSFLT1_con_3kmhel_090.txt.gz
Helicity
123 116 152 164 28 33 50 39 56 75 98 407 452 571 682 492 447 346 157 201 124 182 155 160 146 125 51 33 36 59 65 51
126 108 130 76 3 28 37 33 33 91 96 193 193 174 264 320 316 205 123 165 190 115 126 137 129 145 46 37 53 75 88 74
118 89 100 94 26 27 18 44 49 67 117 141 165 178 212 304 409 242 149 218 197 64 47 96 94 99 88 45 54 52 69 65
108 76 90 94 71 40 51 57 60 38 49 157 235 274 251 239 201 308 368 341 170 86 36 113 55 83 85 64 48 47 51 59
100 73 90 77 101 100 109 73 48 63 87 88 123 146 131 133 206 311 319 227 3 48 51 57 27 83 93 41 -1 9 16 42
93 67 66 72 94 111 118 117 54 70 84 89 117 98 61 138 141 148 124 124 116 122 95 49 44 33 -27 -53 -22 -10 13 6
62 74 61 79 71 88 115 104 64 36 61 75 100 85 129 102 157 91 22 79 33 26 12 -28 -77 -94 -85 -68 -5 -7 9 28
81 94 68 71 85 75 70 77 67 42 50 85 86 66 61 75 89 64 71 5 -36 -106 -106 -138 -166 -104 -78 -41 -13 -16 12 8
91 98 65 62 77 70 63 52 45 61 45 6 -19 1 -11 -3 39 37 69 42 27 -6 -58 -67 -49 -35 -17 25 37 2 1 21
80 96 81 72 74 80 77 66 38 44 45 27 4 -4 -5 -14 -6 -10 9 50 42 49 19 45 43 22 19 31 23 -33 -12 9
47 73 94 84 85 84 67 52 54 45 38 31 18 32 29 2 1 25 32 35 46 41 12 18 27 22 41 53 67 51 70 70
50 80 74 76 88 93 82 62 50 37 37 33 24 25 40 34 24 22 30 40 47 32 11 1 22 38 71 92 111 167 122 80
30 46 89 84 94 100 106 83 67 54 45 43 41 35 31 23 12 14 16 21 29 41 42 38 45 61 85 151 248 269 241 358
51 56 68 43 48 76 94 102 90 74 70 65 45 39 47 49 38 27 24 28 31 35 48 63 66 90 112 161 186 243 261 256
67 58 51 22 22 42 47 75 86 98 91 73 74 66 67 63 51 36 47 44 66 79 58 66 84 74 108 101 126 142 157 211
63 51 45 28 32 32 26 44 79 86 83 73 68 72 64 64 53 57 55 66 49 57 75 81 78 67 84 102 125 151 204 237
50 39 26 39 51 56 69 54 58 74 65 45 21 31 32 34 26 31 52 52 56 91 98 91 105 145 213 162 158 205 272 353
34 52 31 33 47 98 74 94 95 70 46 41 47 48 42 48 45 46 51 67 81 136 227 251 260 229 195 210 287 328 388 411
30 53 37 9 55 82 102 98 108 97 85 81 91 100 109 124 131 150 206 230 243 259 276 277 275 272 294 334 394 384 416 415

GFSFLT1_con_3kmhel_093.txt.gz
Helicity
199 165 151 159 138 33 37 27 31 66 104 198 189 70 111 599 505 464 459 374 200 91 149 139 157 176 159 106 77 35 12 6
203 152 140 108 92 52 33 43 48 70 134 268 280 433 467 457 428 444 462 330 120 135 124 137 163 173 144 129 103 78 30 68
159 153 116 73 100 64 42 46 53 56 71 117 400 354 395 580 581 527 399 324 130 147 169 191 199 240 166 140 119 131 81 55
146 119 115 71 68 117 67 70 54 71 73 90 145 226 311 358 463 435 395 330 282 100 148 130 158 131 201 122 91 157 69 40
135 108 116 87 58 109 131 95 57 50 28 57 103 143 166 173 223 236 169 207 190 187 285 66 50 82 64 141 65 35 24 4
117 96 110 91 64 76 141 126 69 27 40 61 83 122 183 232 238 223 164 263 293 214 223 67 -3 48 57 113 -11 -28 34 -29
107 95 109 94 110 53 94 122 109 45 38 52 66 120 157 159 261 282 265 304 248 184 3 -28 -27 -24 -20 -66 -15 43 -32 -65
105 113 103 105 110 74 53 86 91 81 55 51 72 127 108 137 214 253 311 202 150 28 -55 -64 -101 -67 -48 -8 55 73 -12 -45
126 113 98 102 110 89 71 46 74 83 69 92 96 89 138 96 112 165 195 147 76 34 -0 -28 -27 29 -0 15 59 37 19 40
92 109 103 93 90 78 79 75 57 58 76 61 34 52 59 46 45 75 58 65 20 25 1 58 1 22 14 -9 12 74 67 63
57 72 94 82 83 64 64 59 64 58 43 60 36 22 3 22 15 70 44 49 23 -12 -28 -25 -8 9 -0 5 29 65 84 108
44 46 94 81 93 98 78 58 58 76 57 46 52 39 -3 10 -0 39 46 42 49 15 37 33 41 39 52 54 81 108 133 155
38 65 118 127 138 121 105 77 59 63 84 69 59 55 61 34 30 41 45 42 63 90 79 91 75 67 79 105 127 165 166 185
29 44 97 147 164 141 136 126 81 74 77 95 87 81 77 71 50 34 52 46 48 54 56 69 79 87 86 101 119 130 135 189
33 42 50 98 133 117 112 131 123 106 86 77 102 90 82 82 84 77 71 68 71 66 64 63 77 74 73 98 127 164 198 210
41 33 50 58 79 75 74 96 116 108 115 105 112 81 68 66 86 96 87 93 76 62 61 73 72 80 109 135 163 170 187 219
32 56 48 45 47 56 67 75 113 123 104 121 117 129 103 93 98 103 113 94 88 92 107 86 98 299 339 306 251 233 279 331
32 58 32 37 26 57 69 75 105 121 97 98 113 109 83 104 101 93 97 90 132 313 366 334 354 351 293 303 306 331 363 366
90 81 85 54 53 59 83 114 120 126 123 99 96 98 86 78 94 156 360 411 394 377 373 367 382 396 355 358 394 393 422 443

GFSFLT1_con_3kmhel_099.txt.gz
Helicity
490 525 453 378 292 238 148 38 18 21 28 24 37 26 32 30 161 312 372 295 211 167 197 141 116 127 134 145 130 106 85 56
515 546 472 353 279 228 125 58 56 61 46 39 52 98 59 22 108 250 376 268 225 170 202 203 161 134 142 160 172 125 139 77
542 514 393 276 250 189 141 83 54 44 63 78 87 115 67 56 180 249 288 330 253 227 308 292 300 239 242 221 203 227 185 128
479 399 323 257 232 186 169 109 76 44 82 92 129 155 121 164 142 279 440 413 482 365 381 326 319 242 266 214 191 196 205 122
396 339 285 223 213 171 173 139 139 49 64 102 138 110 135 83 138 204 355 404 467 488 426 342 223 180 196 221 157 159 108 122
315 343 254 192 221 155 167 173 161 95 12 47 83 154 67 171 177 320 484 478 414 526 516 451 230 301 224 129 110 136 125 124
369 316 286 200 201 150 159 197 151 117 40 33 106 151 186 223 247 325 294 387 481 534 432 490 464 439 399 107 88 154 67 104
402 367 300 181 181 160 162 180 145 118 74 62 100 138 190 262 302 268 321 463 421 379 406 362 309 381 375 72 30 94 -7 -100
321 319 239 199 183 180 156 167 134 136 108 86 95 129 141 180 249 386 557 484 81 110 206 179 97 128 90 -43 -37 -104 29 -64
274 262 239 198 198 152 141 137 126 105 142 148 149 118 120 134 119 129 114 101 109 166 160 106 7 -7 -44 -63 94 3 8 33
237 285 277 206 204 185 128 125 109 91 100 133 193 175 160 125 117 122 122 108 132 146 129 66 17 18 -17 -9 33 40 -29 47
256 313 300 258 221 191 158 117 147 120 93 102 132 164 162 152 120 125 139 108 125 119 103 72 45 28 -17 -25 -34 -17 -12 41
255 307 311 291 243 206 173 154 142 146 110 83 111 120 161 177 145 96 125 124 114 120 88 40 17 31 7 -33 -36 1 41 61
230 257 274 289 252 234 197 168 139 158 153 138 99 132 137 140 176 150 128 117 129 129 88 72 47 9 10 16 33 53 94 108
165 136 220 260 275 298 256 216 206 204 189 175 150 135 146 106 95 106 126 100 103 125 128 113 86 44 37 55 89 136 152 175
185 51 48 231 278 293 293 245 217 269 243 222 189 156 131 119 91 73 65 58 82 118 109 79 69 62 98 129 143 170 278 319
110 128 86 179 246 324 339 323 278 230 273 256 249 199 180 161 137 135 117 90 119 139 123 133 209 279 219 212 306 347 377 390
62 113 173 195 325 91 327 327 338 266 224 274 275 239 207 174 132 130 121 151 157 274 358 355 385 378 346 364 405 415 453 468
98 78 128 223 374 357 109 215 323 302 258 223 286 304 245 216 217 188 233 355 413 454 466 472 506 463 418 457 528 544 619 593

GFSFLT1_con_3kmhel_105.txt.gz
Helicity
247 388 428 451 409 341 368 294 242 228 203 120 84 88 50 38 93 149 80 132 163 284 202 187 226 194 190 213 227 249 235 188
300 354 385 441 403 351 338 289 226 269 243 163 108 82 61 52 62 68 57 130 194 252 193 218 162 156 166 168 267 266 242 206
227 341 380 389 408 316 317 279 248 221 227 166 128 100 73 65 108 95 178 182 222 222 174 132 175 209 216 202 249 358 281 179
190 273 360 439 411 324 278 264 219 205 222 181 116 111 105 116 99 149 305 427 239 201 174 204 191 188 209 183 232 286 255 172
155 218 329 390 400 279 253 267 185 204 213 177 86 92 135 162 124 255 266 240 219 210 206 239 215 206 208 220 187 200 256 184
185 261 358 386 319 258 236 272 145 204 176 137 79 74 82 125 130 318 313 230 301 240 242 219 244 243 238 209 163 160 196 214
114 215 334 389 249 222 237 252 121 169 145 93 70 69 85 91 128 283 404 310 283 340 219 181 191 219 216 204 179 153 175 165
105 231 345 327 249 213 222 194 114 139 125 87 55 68 61 61 118 109 274 271 239 211 224 187 204 215 237 278 282 241 237 170
163 227 315 290 260 200 210 145 111 118 115 100 64 58 61 65 99 88 156 185 293 377 292 331 348 335 342 294 383 319 262 240
72 165 189 238 209 190 212 122 102 103 125 127 77 56 61 82 107 148 185 247 338 323 360 297 337 225 275 301 324 194 181 281
31 126 86 91 129 188 172 107 86 107 126 129 107 71 59 72 110 157 196 283 392 450 510 397 289 440 444 365 307 231 169 152
10 67 78 36 54 112 129 111 94 111 124 120 124 98 78 86 89 107 138 207 214 330 409 498 301 307 238 316 224 172 91 89
116 54 91 43 29 56 64 64 95 116 129 129 113 115 97 82 87 102 132 181 151 266 364 459 208 260 196 203 151 119 94 62
80 42 49 -4 40 47 32 35 56 86 128 128 128 129 121 95 92 103 121 123 131 132 117 122 125 172 193 180 166 145 113 53
136 84 60 52 -6 12 42 41 19 48 70 75 99 138 136 107 96 120 118 114 135 142 82 44 61 105 165 156 140 134 96 63
183 115 108 105 110 22 38 62 79 87 69 66 58 76 94 120 133 131 132 132 126 116 103 84 75 61 81 96 101 106 98 127
93 56 12 100 161 27 66 47 76 105 104 106 105 95 98 87 93 119 135 137 134 129 117 107 94 89 100 84 98 110 148 172
3 -22 27 65 83 181 -10 34 -5 108 121 123 139 148 133 132 123 104 96 113 129 137 130 126 121 125 109 101 133 219 260 290
44 37 7 17 72 81 110 123 34 43 118 152 183 221 176 157 166 151 128 117 133 163 180 189 210 200 170 212 338 394 415 402

GFSFLT1_con_3kmhel_111.txt.gz
Helicity
53 58 62 44 91 114 162 275 310 311 324 285 254 204 181 138 124 125 115 141 205 217 89 137 182 241 222 174 235 167 150 131
44 51 41 35 62 110 157 243 311 366 381 290 241 193 196 156 118 131 108 151 191 226 307 210 198 254 206 216 257 228 227 162
53 36 33 48 49 82 152 220 320 327 290 253 230 193 202 173 100 100 91 98 94 112 217 313 342 244 306 293 272 284 277 182
96 63 63 89 61 100 156 248 330 326 237 245 265 200 217 236 121 78 91 95 139 90 103 260 356 335 313 309 309 253 300 191
93 79 71 102 103 103 165 254 317 293 255 225 220 181 210 213 116 105 101 128 157 145 201 222 296 287 293 288 277 246 293 264
120 85 66 93 100 152 176 216 258 251 204 228 204 160 184 164 124 124 159 148 188 214 271 337 300 305 297 327 290 261 290 318
152 130 45 88 100 140 160 266 225 184 165 193 150 126 129 134 113 148 173 199 200 301 278 281 244 283 308 315 315 282 300 281
151 124 79 108 105 64 127 198 194 129 126 126 113 87 68 76 77 119 192 186 261 344 228 232 213 251 212 208 222 271 284 269
80 110 34 76 109 83 108 148 160 128 112 110 92 63 53 37 69 109 165 202 292 238 162 152 107 151 189 212 251 304 259 290
62 56 44 45 91 121 140 152 136 111 101 120 87 60 45 46 79 89 141 196 254 232 233 172 166 192 180 132 184 254 254 258
46 76 65 77 96 147 140 145 109 90 95 113 71 66 34 43 54 69 128 157 271 138 85 142 195 166 148 180 183 185 170 193
53 80 108 129 99 157 148 200 112 82 76 93 85 68 34 36 55 66 68 138 168 99 80 126 144 149 197 270 333 283 307 318
88 87 125 130 139 145 173 208 99 69 74 60 73 61 43 33 42 32 44 73 135 161 232 180 205 304 116 176 291 242 223 250
175 197 154 200 113 161 145 110 91 69 56 55 76 47 33 30 29 38 24 28 62 110 97 220 238 273 222 178 207 289 182 102
234 282 292 230 203 206 220 119 105 64 50 53 61 40 20 35 45 44 35 24 24 34 39 135 203 160 271 196 188 230 291 93
101 241 237 389 269 222 222 195 112 76 60 52 63 55 31 37 53 55 58 43 22 21 46 69 84 142 183 272 180 188 251 236
91 36 -19 112 221 174 320 221 197 127 73 62 51 52 47 40 46 55 67 64 69 59 39 50 76 137 190 283 211 220 256 337
31 23 -32 13 50 230 210 298 242 190 83 82 71 52 43 48 51 58 60 65 78 88 79 72 65 62 92 80 105 165 156 226
17 36 28 -13 -6 41 67 76 155 255 250 178 97 88 104 56 39 58 62 65 101 117 109 106 97 87 86 71 83 153 202 211

GFSFLT1_con_3kmhel_114.txt.gz
Helicity
44 60 63 50 46 37 91 93 118 167 268 275 232 193 209 228 182 177 117 126 110 100 131 169 167 238 115 143 177 71 70 90
46 69 60 55 54 34 51 98 129 262 344 370 271 230 228 202 168 165 158 132 137 127 178 111 174 190 117 147 90 54 79 105
55 63 55 67 51 37 47 77 139 231 274 248 215 245 211 196 198 182 152 127 137 156 179 140 256 219 150 155 136 121 121 143
101 88 69 55 63 48 51 70 127 163 183 216 191 185 200 206 183 169 141 141 122 149 169 264 391 275 268 171 138 110 204 180
85 79 82 63 77 85 82 82 107 124 170 180 187 169 163 176 144 117 105 76 97 127 175 204 419 307 192 235 185 176 178 175
87 84 68 88 97 128 95 101 95 141 148 154 146 108 144 160 114 90 77 93 84 104 128 210 256 255 363 268 207 229 203 169
82 87 75 116 109 120 98 67 118 174 176 170 122 111 147 152 111 90 92 131 130 136 142 259 305 345 305 314 279 225 230 215
89 102 84 73 100 93 106 77 157 181 192 168 94 98 130 94 87 71 114 164 178 177 168 237 357 409 390 335 326 284 188 178
79 83 74 91 80 65 88 111 125 149 176 123 73 94 88 66 58 83 86 111 122 162 257 306 269 277 339 327 298 306 170 204
37 24 58 97 75 55 64 111 95 132 142 94 83 91 59 53 58 77 92 94 153 237 304 258 270 295 305 291 384 385 236 204
28 27 33 57 60 48 53 90 120 134 135 91 86 86 52 59 59 77 91 112 147 208 173 137 180 198 238 262 252 223 160 206
20 28 42 51 42 54 63 106 165 147 147 101 88 61 51 65 55 70 70 117 164 186 159 147 144 107 99 123 142 145 162 137
40 50 55 105 61 57 80 143 191 175 115 103 85 56 50 70 65 61 75 114 156 196 156 88 25 71 44 -44 104 95 120 174
62 70 69 94 185 114 101 147 176 142 109 99 77 50 45 54 51 50 55 75 116 128 132 92 60 172 188 193 112 76 108 226
90 85 65 54 130 182 303 213 122 134 125 100 79 36 34 53 48 46 42 48 80 110 125 92 90 107 125 130 82 85 134 206
101 75 69 116 92 140 196 302 310 147 92 112 79 43 31 42 35 40 33 37 50 69 96 98 110 115 138 120 169 183 127 163
96 80 82 73 169 173 202 238 348 232 229 128 76 65 40 41 25 29 26 20 30 55 72 107 142 155 138 119 176 168 174 163
93 82 69 71 80 84 185 277 299 323 261 144 107 71 57 47 39 34 20 18 19 20 37 60 62 79 100 121 122 156 180 232
79 69 58 40 28 78 75 -36 140 119 266 256 231 167 71 55 48 42 28 21 27 30 34 38 45 51 101 130 204 287 314 263

GFSFLT1_con_3kmhel_117.txt.gz
Helicity
39 35 26 24 52 108 108 138 136 176 172 128 151 221 199 226 185 206 164 124 87 50 84 104 147 200 181 205 191 139 85 96
31 27 26 35 74 99 79 95 115 189 146 188 286 252 247 207 163 166 174 185 102 72 61 111 144 220 187 182 176 93 72 71
28 26 39 72 107 80 70 78 82 144 191 242 210 187 167 145 144 166 164 194 159 99 92 141 196 267 219 225 211 188 137 101
23 28 42 117 83 87 68 88 84 161 251 178 136 164 248 217 195 176 186 187 200 145 139 127 171 208 328 219 186 222 183 83
53 92 108 82 84 78 74 91 74 203 192 111 139 165 203 153 146 133 179 192 192 148 155 156 184 243 251 235 202 214 131 117
90 65 64 47 70 89 78 99 91 174 115 105 137 128 128 135 117 154 154 171 138 130 161 182 177 299 342 355 224 173 167 191
79 72 100 64 200 130 110 119 123 168 103 93 104 125 145 165 131 141 162 150 118 150 179 207 203 214 317 379 346 203 171 180
92 103 95 83 99 110 109 105 140 154 113 88 115 129 144 142 127 131 156 173 191 175 212 215 237 217 294 464 374 269 213 209
89 97 81 79 92 71 74 80 133 156 121 122 138 150 141 120 112 126 129 128 122 126 172 187 147 200 293 354 408 300 327 299
98 48 68 76 87 87 88 94 123 139 119 127 135 133 104 83 89 106 114 146 124 122 140 148 130 206 292 332 414 290 362 334
80 70 61 53 39 51 66 99 121 97 94 120 107 89 82 89 102 136 121 129 126 136 158 150 227 245 362 327 323 297 330 359
59 52 44 59 46 33 52 91 115 102 135 132 122 90 75 89 104 105 95 119 116 139 128 130 189 275 262 315 316 310 459 342
60 29 28 47 91 69 42 69 120 117 178 185 155 108 95 92 101 92 106 113 133 157 114 116 162 150 185 246 238 294 288 262
56 56 47 58 76 92 161 109 99 134 147 138 129 111 95 83 88 101 96 112 139 135 136 116 148 144 105 136 200 195 201 270
88 60 46 64 107 100 121 174 246 142 118 133 101 106 91 78 87 73 82 90 117 128 155 121 78 102 111 32 -23 92 47 89
82 68 53 49 84 128 104 140 185 266 283 107 89 89 73 75 108 63 65 69 81 95 123 136 132 92 99 153 75 97 121 115
104 91 66 54 77 66 122 140 158 169 252 321 113 82 71 102 99 69 67 53 59 91 94 96 118 109 91 144 145 140 122 100
115 98 87 72 50 46 54 99 161 139 196 228 332 120 82 134 101 57 55 48 39 50 76 95 87 81 105 88 75 149 163 172
128 97 76 81 56 36 36 54 83 140 253 159 247 268 245 182 95 71 47 51 52 46 57 54 70 62 90 106 121 102 108 166

GFSFLT1_con_3kmhel_120.txt.gz
Helicity
58 79 36 67 127 109 206 264 314 307 310 246 155 163 145 157 224 173 181 203 215 220 193 200 227 246 201 201 198 160 149 120
72 61 66 93 93 121 209 234 309 341 292 294 271 201 178 224 223 194 167 174 191 213 214 192 183 237 228 201 193 177 136 127
63 92 90 87 80 125 227 243 267 309 293 308 297 246 228 204 170 170 182 158 189 209 251 232 201 178 276 231 222 234 140 155
78 89 79 97 119 167 213 213 181 226 257 337 349 318 181 131 140 170 194 141 220 203 270 272 249 266 303 263 273 261 184 170
96 75 63 88 164 270 268 167 170 204 324 389 332 273 259 236 247 200 178 177 175 234 267 285 265 242 266 264 316 278 239 198
77 69 62 144 150 201 193 160 153 278 337 352 240 179 195 223 158 155 159 195 185 196 238 253 244 226 249 249 279 301 297 218
214 185 142 145 177 247 307 228 140 308 291 230 147 106 196 148 125 178 190 190 191 210 204 196 225 229 209 214 271 302 266 259
164 81 93 103 169 246 317 260 160 236 188 119 90 132 137 103 155 180 216 200 177 177 196 185 194 211 213 190 271 305 251 271
181 206 207 193 226 139 95 104 165 251 166 116 121 125 115 176 182 159 228 190 195 230 232 250 216 221 213 212 273 262 294 223
189 150 161 170 194 174 81 78 153 198 214 193 163 159 137 191 209 199 176 166 212 221 220 267 272 253 223 222 165 230 275 268
205 131 142 121 92 88 87 96 99 106 130 173 207 192 177 194 157 132 140 206 241 237 226 206 217 199 198 195 158 216 383 340
98 99 92 97 100 115 85 103 114 103 118 131 159 171 136 136 137 118 164 200 178 172 171 210 193 157 167 211 208 277 284 261
88 106 94 91 87 88 112 138 127 109 136 145 184 157 146 134 124 94 132 145 128 158 178 192 170 183 162 208 221 266 274 302
107 97 72 67 73 91 102 148 182 204 154 145 216 215 203 138 96 109 171 143 127 146 143 138 137 149 157 163 204 227 184 264
76 83 63 38 46 75 108 147 158 176 207 165 140 146 140 111 88 107 114 109 120 115 112 124 121 120 125 122 114 201 147 178
117 75 47 33 23 29 74 117 142 142 181 231 211 130 115 87 90 83 95 97 98 106 112 106 103 78 74 104 46 94 134 131
138 123 73 42 31 26 39 65 109 119 128 195 200 212 152 122 98 85 75 77 105 93 90 103 114 94 73 68 31 13 43 88
107 101 83 54 27 25 32 43 71 55 116 166 207 269 311 323 162 77 67 62 86 85 72 70 72 85 99 108 110 92 82 77
96 97 84 77 49 42 3 28 55 75 102 142 217 215 305 248 230 163 63 71 87 74 71 61 42 44 61 79 119 146 137 118

GFSFLT1_con_3kmhel_123.txt.gz
Helicity
116 78 80 94 86 190 340 405 444 472 400 360 316 273 241 233 237 236 231 200 187 186 246 290 324 298 233 207 202 204 178 187
64 67 125 154 180 284 361 427 405 553 467 424 320 233 230 261 232 180 176 200 205 212 226 289 351 329 246 230 224 234 206 219
59 75 157 147 182 187 302 374 430 432 444 370 318 300 268 278 277 156 163 200 209 224 240 279 334 334 281 260 233 243 240 194
47 75 75 157 161 170 221 292 330 353 398 422 439 414 351 329 235 193 182 177 183 213 227 267 311 335 311 261 255 273 289 220
52 53 98 92 121 134 208 256 275 295 377 418 405 387 372 335 276 231 194 163 158 196 226 249 297 329 320 271 239 268 287 300
41 76 119 117 112 142 227 269 260 307 369 377 402 396 349 310 253 192 165 173 169 206 201 253 291 306 297 301 258 270 254 342
76 68 171 236 192 242 282 263 293 288 327 353 360 340 310 259 254 214 210 171 173 172 205 247 284 276 282 304 270 253 270 311
308 345 328 415 451 441 405 397 306 293 299 334 337 299 276 256 216 190 205 220 191 214 187 177 249 234 247 245 228 237 256 282
500 461 507 492 412 379 390 409 406 328 247 240 241 214 206 186 166 213 201 172 157 201 179 175 182 189 210 228 240 266 245 228
528 558 491 427 311 266 295 282 247 269 248 180 157 128 105 163 174 227 193 156 151 189 200 199 183 184 205 223 258 247 279 229
458 432 375 411 315 232 143 130 154 218 256 257 203 140 164 226 231 253 184 193 222 232 198 197 200 214 233 245 223 207 189 210
254 275 214 237 213 196 187 197 186 193 188 189 194 193 197 222 186 198 220 240 239 220 207 214 205 202 207 184 158 205 200 148
394 242 219 190 147 138 145 150 176 224 199 174 163 158 170 188 171 178 196 205 184 165 170 156 142 147 131 135 160 164 172 173
294 166 141 113 102 104 108 134 164 196 215 174 174 122 170 186 180 155 158 170 151 138 150 136 126 126 137 139 124 133 168 214
178 164 147 104 85 86 108 132 173 182 199 219 232 234 192 191 155 148 158 143 133 131 118 109 111 102 105 91 76 88 118 199
221 62 133 116 88 72 79 118 177 185 159 179 221 208 224 196 146 123 116 107 111 120 112 100 90 84 60 32 72 81 102 176
197 120 87 69 58 46 41 68 116 149 189 166 167 183 201 208 165 124 112 103 109 115 108 90 84 88 56 39 43 46 91 127
186 155 107 25 -7 -17 3 26 44 108 153 210 207 165 172 226 260 207 134 114 94 91 106 91 87 102 65 36 41 18 17 50
81 97 120 121 32 -33 -31 4 38 61 94 176 213 233 195 200 231 278 292 128 91 94 96 78 81 97 61 33 49 51 52 32

GFSFLT1_con_3kmhel_129.txt.gz
Helicity
47 84 81 126 166 153 187 284 314 256 307 295 254 235 205 211 215 204 199 185 176 176 136 143 168 154 139 145 128 135 126 155
22 75 84 56 160 185 204 241 267 368 383 359 308 287 247 222 221 233 236 202 203 199 175 166 176 177 161 168 151 150 167 192
-6 44 39 60 98 152 190 267 314 388 417 395 378 351 278 275 238 218 223 231 225 225 223 196 175 185 200 196 224 221 201 218
-1 30 74 65 78 165 154 148 297 372 423 450 506 496 429 321 228 222 234 259 246 234 240 226 213 196 185 197 198 235 234 199
2 46 91 54 -1 76 135 177 291 342 432 512 482 463 420 339 296 294 274 271 242 250 246 242 239 228 201 205 204 206 234 238
19 77 96 37 22 -41 110 149 234 310 390 423 458 396 437 451 367 293 289 258 217 227 262 246 250 262 248 249 237 238 269 244
93 96 89 73 91 -43 95 84 159 300 357 378 376 428 469 412 314 301 281 275 250 213 269 220 224 249 278 258 243 216 241 241
90 93 52 141 167 -24 -70 146 180 214 295 340 336 335 373 363 315 293 289 306 262 199 279 232 224 234 235 232 231 217 221 227
10 64 182 236 279 313 51 171 274 219 195 214 250 302 330 290 280 272 245 246 233 225 252 219 205 220 225 225 221 223 229 223
35 165 345 446 544 558 211 187 346 316 316 290 310 269 264 264 258 238 221 223 226 173 222 222 215 211 212 204 213 225 224 213
248 343 516 708 789 674 535 536 487 409 312 250 249 240 254 263 275 251 244 229 209 184 210 209 195 198 188 180 188 216 206 215
231 284 402 485 527 559 583 539 526 524 442 339 246 185 211 220 220 236 224 198 226 198 180 164 152 154 158 155 162 176 192 200
164 296 233 278 347 285 317 344 338 362 337 334 331 280 215 213 200 192 214 184 208 185 155 139 142 151 169 159 152 165 161 153
347 384 304 146 263 262 240 266 278 278 279 298 335 325 231 173 175 188 197 197 200 203 172 141 140 136 153 153 142 144 155 166
284 380 430 423 266 367 320 330 294 248 228 243 276 317 338 249 137 158 144 156 184 191 171 137 131 128 142 137 134 143 131 127
611 419 373 377 234 347 331 295 275 229 189 208 252 290 284 322 304 166 152 181 190 155 134 137 108 130 129 122 129 129 125 119
230 459 433 274 225 230 239 204 199 173 173 171 191 225 243 301 266 238 147 153 104 165 95 104 103 141 89 86 119 119 124 123
157 226 283 195 121 115 132 133 107 91 112 133 149 152 159 188 186 170 195 203 116 115 125 81 79 78 68 76 80 122 130 124
11 23 26 27 40 32 47 64 54 67 83 85 103 132 146 163 167 194 144 177 260 122 105 116 99 48 52 70 81 119 141 135

GFSFLT1_con_3kmhel_132.txt.gz
Helicity
-48 2 35 128 198 259 150 194 228 302 315 322 271 212 161 180 161 159 169 174 174 193 160 155 155 109 132 177 168 164 141 155
27 -43 3 50 142 197 267 206 209 283 293 292 274 220 180 189 178 128 171 203 187 211 189 179 175 137 116 167 188 182 200 223
138 24 -5 -12 106 151 307 190 228 282 276 327 314 268 217 200 205 164 136 192 203 231 217 199 189 178 142 170 238 232 199 228
104 154 34 26 103 149 176 246 183 261 265 290 375 319 280 263 227 195 171 165 212 239 219 226 218 205 204 166 204 261 274 209
109 73 102 86 119 166 165 135 190 226 281 316 330 374 352 297 274 259 221 207 218 240 235 234 236 217 195 196 189 222 274 262
89 30 73 138 120 201 186 148 120 172 249 281 358 389 339 323 333 310 257 239 245 232 241 219 229 244 222 207 204 204 253 248
88 90 143 224 116 178 166 122 76 165 241 242 298 306 392 416 387 353 313 275 273 223 219 232 242 246 236 220 201 209 233 241
64 30 72 105 115 146 168 116 135 87 198 222 285 266 296 351 386 401 370 309 269 235 270 265 253 268 255 237 237 212 223 239
47 42 69 150 145 134 135 176 174 77 152 218 242 217 340 321 362 395 335 255 217 282 286 254 246 244 245 227 222 211 201 191
94 161 181 213 227 229 192 241 163 70 185 251 239 284 211 295 299 291 242 179 183 228 220 249 248 232 235 221 225 210 195 185
80 263 336 354 399 488 464 443 247 149 142 193 199 218 267 257 256 247 188 186 203 231 209 233 230 222 224 224 217 202 175 169
100 316 386 351 521 580 747 585 227 358 253 218 175 158 157 160 173 174 178 219 213 207 229 216 233 221 220 217 207 198 158 151
236 373 513 369 445 621 644 624 561 335 404 418 346 182 161 144 58 104 142 193 193 198 189 188 208 184 185 168 167 157 136 152
405 266 653 527 301 442 599 544 592 392 355 431 424 334 225 110 92 113 154 178 181 199 192 163 174 141 149 148 149 142 149 145
130 366 486 563 477 273 424 403 367 321 319 266 369 439 335 309 225 162 165 166 169 162 165 142 177 165 127 137 136 152 147 141
105 351 440 507 425 358 291 310 306 279 277 296 337 351 338 310 271 272 184 143 140 149 187 175 192 184 155 140 144 135 146 137
109 140 417 360 294 315 294 234 259 257 245 270 256 265 288 301 293 248 255 193 119 129 139 170 128 143 117 99 129 123 120 125
-10 130 139 216 240 250 179 168 142 147 157 171 198 194 199 219 239 218 245 240 207 122 147 96 118 102 96 69 82 122 108 108
-24 44 64 91 120 95 83 87 97 98 113 127 151 165 147 142 140 141 173 197 163 164 111 63 97 122 101 63 61 89 97 103